Regional Weather Roundup
Issued by NWS Cleveland, OH

Home | Current Version | Previous Version | Text Only | Print | Product List | Glossary Off
Versions: 1 2 3 4 5 6 7 8 9 10 11 12 13 14 15 16 17 18 19 20 21 22 23 24 25 26 27 28 29 30 31 32 33 34 35 36 37 38 39 40 41 42 43 44 45 46 47 48 49 50

000
ASUS41 KCLE 251302
RWRCLE
OHIO REGIONAL WEATHER ROUNDUP
NATIONAL WEATHER SERVICE CLEVELAND, OH
800 AM EST SUN JAN 25 2015

NOTE: "FAIR" INDICATES FEW OR NO CLOUDS BELOW 12,000 FEET WITH NO
SIGNIFICANT WEATHER AND/OR OBSTRUCTIONS TO VISIBILITY.

OHZ001>008-015>018-024>027-034-035-043-044-251400-
   NORTHWEST OHIO

CITY           SKY/WX    TMP DP  RH WIND       PRES   REMARKS
DEFIANCE       CLOUDY    35  32  88 NE3       29.75R
FINDLAY        CLOUDY    35  31  85 E3        29.73R
TOLEDO EXPRESS LGT SNOW  29  27  92 E16       29.77R FOG     WCI  17
TOLEDO EXEC    FLURRIES  29  25  85 NE17G26   29.80R WCI  17
LIMA           CLOUDY    35  30  82 CALM      29.72R
$$

OHZ009>014-019>023-028>033-038-089-251400-
   NORTHEAST OHIO

CITY           SKY/WX    TMP DP  RH WIND       PRES   REMARKS
CLE-HOPKINS    CLOUDY    30  27  88 NE15      29.81R FOG     WCI  19
CLE-LAKEFRONT  FLURRIES  30  25  81 NE17G23   29.80R WCI  18
CUY CO. ARPT   SNOWSHWR  30  30 100 NE14      29.80R WCI  20
LORAIN-ELYRIA  CLOUDY    29  27  92 NE15      29.78R WCI  18
ASHTABULA      FLURRIES  27  24  89 NE6       29.80R WCI  20
AKRON-CANTON   LGT SNOW  34  31  88 S3        29.74S FOG
WOOSTER        CLOUDY    33  30  88 CALM      29.75R FOG
MANSFIELD      CLOUDY    34  31  88 SW5       29.73S WCI  30
YOUNGSTOWN     FOG       33  32  96 CALM      29.75R VSB 3/4
$$

OHZ042-051>053-060>062-070>072-077>081-251400-
  SOUTHWEST OHIO

CITY           SKY/WX    TMP DP  RH WIND       PRES   REMARKS
CINC-COVINGTON CLOUDY    36  30  79 S6        29.70F
CINC-LUNKEN    CLOUDY    32  30  92 CALM      29.75S
HAMILTON       CLOUDY    35  31  85 E5        29.73F
DAYTON         CLOUDY    32  29  88 SE6       29.72S FOG     WCI  26
WRIGHT-PAT AFB NOT AVBL
DAYTON GENERAL CLOUDY    34  30  85 S7        29.71S WCI  28
WILMINGTON     CLOUDY    33  29  85 S7        29.72S WCI  27
$$

OHZ036-037-039>041-045>050-054>059-063>069-073>076-082>088-251400-
  CENTRAL AND SOUTHEAST OHIO

CITY           SKY/WX    TMP DP  RH WIND       PRES   REMARKS
COLUMBUS       CLOUDY    33  29  85 CALM      29.75R FOG
OSU AIRPORT    MOCLDY    33  29  85 SE5       29.74S FOG     WCI  29
BOLTON FIELD   MOCLDY    30  30 100 SE3       29.75S
RICKENBACK AFB NOT AVBL
NEWARK         CLOUDY    34  30  85 CALM      29.74F
MARION         CLOUDY    33  29  85 S5        29.74R FOG     WCI  29
LANCASTER      MOCLDY    34  29  82 S5        29.76R HAZE    WCI  30
ZANESVILLE     CLOUDY    31  29  92 S6        29.76S FOG     WCI  25
NEW PHILLY     MOCLDY    33  29  85 SE3       29.77S FOG
$$


USA.gov is the U.S. government's official web portal to all federal, state and local government web resources and services.